Regional Weather Roundup
Issued by NWS

Home | Current Version | Previous Version | Text Only | Print | Product List | Glossary Off
Versions: 1 2 3 4 5 6 7 8 9 10 11 12 13 14 15 16 17 18 19 20 21 22 23 24 25 26 27 28 29 30 31 32 33 34 35 36 37 38 39 40 41 42 43 44 45 46 47 48 49 50

483
ASUS45 KABQ 211301
RWRNM
NEW MEXICO REGIONAL WEATHER ROUNDUP
NATIONAL WEATHER SERVICE ALBUQUERQUE NM
600 AM MST SAT JAN 21 2017

NOTE: "FAIR" MEANS FEW OR NO CLOUDS BELOW 12,000 FEET AGL WITH NO
       SIGNIFICANT WEATHER OR OBSTRUCTIONS TO VISION.

      THIS PRODUCT IS RELEASED AS TWO VERSIONS.  ONE VERSION NEAR
      THE TOP OF THE HOUR CONTAINING PRELIMINARY DATA FROM ALBUQUERQUE
      AND OTHER STATIONS.  A FINAL VERSION WITH ADDITIONAL DATA IS
      ISSUED ABOUT 10 MINUTES AFTER THE HOUR.

NMZ501-503-504-510>518-211400-
NORTHWEST PLATEAU/NORTHCENTRAL MOUNTAINS

CITY           SKY/WX    TMP DP  RH WIND       PRES   REMARKS
FARMINGTON     LGT RAIN  34  31  88 S17G24    29.33S WCI  23
LOS ALAMOS     MIX PCPN  31  31 100 S9        29.42S WCI  22
SANTA FE       LGT SNOW  32  31  96 VRB3      29.43S FOG
TAOS           CLOUDY    30  21  69 CALM      29.41S
ANGEL FIRE     CLOUDY    29  24  80 SW9       29.41R WCI  20

$$
NMZ402-403-502-505>509-211400-
WESTCENTRAL MOUNTAINS/SOUTHWEST MOUNTAINS

CITY           SKY/WX    TMP DP  RH WIND       PRES   REMARKS
GALLUP         LGT SNOW  30  27  88 SW22G31   29.41R FOG     WCI  17
GRANTS         FLURRIES  33  28  83 SW14      29.44R WCI  23
SILVER CITY    CLOUDY    35  32  89 W15G21    29.54F WCI  25

$$
NMZ407-409-411-412-211400-
SOUTHERN DESERTS

CITY           SKY/WX    TMP DP  RH WIND       PRES   REMARKS
DEMING         MOCLDY    39  36  89 W10       29.57F WCI  32
LAS CRUCES     LGT RAIN  40  38  92 W29G36    29.61R WCI  29
ALAMOGORDO     LGT RAIN  45  39  81 S23G30    29.56R
T OR C         MOCLDY    37  35  92 S8        29.49F WCI  31

$$
NMZ519>523-211400-
CENTRAL VALLEYS/CENTRAL HIGHLANDS

CITY           SKY/WX    TMP DP  RH WIND       PRES   REMARKS
ALBUQUERQUE    CLOUDY    38  36  92 S20       29.45S WCI  28
DOUBLE EAGLE   CLOUDY    36  34  93 S15       29.45S WCI  26
MORIARTY ARPT  LGT RAIN  34  32  91 SW15      29.46S WCI  24
CLINES CORNERS LGT SNOW  32  31  96 W23       29.44R FOG     WCI  19
BELEN          FAIR      38  38 100 S14G20    29.45F WCI  30
SOCORRO        DRIZZLE   36  35  94 SE14G20   29.45F WCI  27

$$
NMZ524>526-539-540-211400-
SOUTHCENTRAL MOUNTAINS

CITY           SKY/WX    TMP DP  RH WIND       PRES   REMARKS
RUIDOSO        NOT AVBL

$$
NMZ527>531-211400-
NORTHEAST HIGHLANDS/NORTHEAST PLAINS

CITY           SKY/WX    TMP DP  RH WIND       PRES   REMARKS
LAS VEGAS      MOCLDY    31  30  96 S10       29.40R WCI  22
RATON          FAIR      22  18  85 NE8       29.38F WCI  12
CLAYTON        MOCLDY    34  31  88 SW12      29.40F WCI  25

$$
NMZ532>537-211400-
EASTCENTRAL PLAINS

CITY           SKY/WX    TMP DP  RH WIND       PRES   REMARKS
TUCUMCARI      FAIR      37  32  82 S5        29.42F WCI  33
CANNON AFB     FAIR      37  37 100 S3        29.46F
CLOVIS AIRPORT FAIR      34  28  80 SW8       29.47F WCI  27

$$
NMZ028-029-538-211400-
SOUTHEAST PLAINS

CITY           SKY/WX    TMP DP  RH WIND       PRES   REMARKS
ROSWELL        MOCLDY    47  36  65 S21       29.48R
ARTESIA        FAIR      46  39  76 SW14      29.50F
CARLSBAD       FAIR      49  37  63 SE13G21   29.49F
HOBBS          CLEAR     41  39  93 S7        29.54


$$




USA.gov is the U.S. government's official web portal to all federal, state and local government web resources and services.